TIME,DELAY(SENSOR),PRES,OXYGEN,RAWTEMP,T(OPTODE),TCPHASE,FLUOR,BETA(BETA700),BETA(BETA412),BETA(BETA440),CDOM,C(CSC),ED(ED411.90),ED(ED443.80),ED(ED489.40),ED(ED554.70),LU(LU412.20),LU(LU443.80),LU(LU489.40),LU(LU555.00),COMP,TILTX,TILTY,CHECK
1346018306,5806,874.2500000000000000,170.9739074707031200,366.5238037109375000,11.6209096908569340,37.6195106506347660,52,101,98,79,77,13716,2146954130,2147513472,2147280694,2147495213,2147088502,2146933778,2147693686,2147118692,1307,-2,8,23027
1346021903,5804,989.1900024414062000,175.4290924072265600,460.8482971191406000,8.7392759323120120,38.8440818786621100,53,101,99,79,80,13704,2146956763,2147516288,2147288566,2147515465,2147086080,2146928630,2147716736,2147114870,1234,-2,8,63135
1346025503,5806,1015.9899902343750000,184.5135040283203000,479.5000000000000000,8.1641197204589840,38.5396194458007800,53,142,101,80,79,13703,2146957339,2147517705,2147294875,2147521197,2147086244,2146920502,2147716681,2147113142,204,-2,8,10358
1346029103,5808,1027.8100585937500000,186.0263977050781200,478.9753112792969000,8.1803312301635740,38.4291992187500000,52,101,99,78,79,13700,2146957851,2147514934,2147291721,2147513097,2147087734,2146924918,2147714962,2147115346,65,-2,8,5989
1346032703,5809,1028.6899414062500000,186.7003021240234400,481.8579101562500000,8.0912618637084960,38.4338417053222660,52,101,98,78,81,13699,2146957769,2147516946,2147293696,2147516672,2147088758,2146931776,2147717476,2147118107,3595,-2,8,61495
1346036303,5807,1026.5600585937500000,190.3101959228515600,485.2943115234375000,7.9850168228149410,38.2566184997558600,52,102,98,79,80,13695,2146958336,2147516470,2147292772,2147518052,2147087926,2146921453,2147716150,2147117604,3215,-2,8,39629
1346039903,5802,1029.8800048828125000,190.3773956298828000,485.7243957519531000,7.9717149734497070,38.2604103088378900,53,100,98,79,81,13695,2146955181,2147516772,2147292690,2147516736,2147089142,2146921828,2147713856,2147119049,3568,-2,8,9225
1346043503,5805,1030.2800292968750000,190.2171936035156200,487.0588989257812500,7.9304289817810060,38.2942085266113300,52,100,99,79,79,13694,2146958180,2147513307,2147291538,2147519808,2147089874,2146922724,2147717659,2147115675,3305,-2,8,24574
1346047103,5806,1033.7800292968750000,190.0648040771484400,485.8822021484375000,7.9668321609497070,38.2826004028320300,53,102,99,79,79,13696,2146957549,2147515053,2147292105,2147519030,2147088969,2146929417,2147713947,2147117037,276,-2,8,26593
1346050703,5804,1034.6400146484375000,189.8865051269531200,487.2125854492187500,7.9256749153137210,38.3171806335449200,52,104,99,78,79,13689,2146955785,2147519789,2147294811,2147516324,2147088768,2146922505,2147718070,2147116114,3156,-2,8,61749
1346054303,5807,1032.1300048828125000,187.0971984863281200,482.1553039550781000,8.0820703506469730,38.4134407043457000,51,103,99,78,79,13670,2146954532,2147515520,2147291812,2147518454,2147087597,2146929115,2147717659,2147117266,324,-2,8,59795
1346057903,5806,1026.0600585937500000,186.2604064941406200,482.2477111816406000,8.0792150497436520,38.4705581665039060,52,105,99,78,80,13666,2146956443,2147519597,2147292854,2147519085,2147090752,2146930112,2147716900,2147116653,237,-2,8,42674
1346061503,5805,1027.0300292968750000,186.6273956298828000,483.3742065429687500,8.0443897247314450,38.4650688171386700,53,101,99,81,79,13664,2146958134,2147514112,2147293412,2147522194,2147086866,2146928228,2147716909,2147119360,3358,-2,8,41040
1346065103,5805,1030.1800537109375000,188.3744964599609400,483.9039001464844000,8.0280132293701170,38.3588981628418000,53,103,98,79,79,13671,2146958884,2147517056,2147290998,2147518491,2147090358,2146923218,2147717266,2147119771,3390,-2,8,58798
1346068703,5805,1026.3199462890625000,187.5204010009765600,484.9584045410156000,7.9954028129577640,38.4337806701660160,53,102,99,79,80,13666,2146959661,2147515977,2147292096,2147517376,2147090331,2146924608,2147721408,2147120557,3173,-2,8,26896
1346072303,5808,1033.3900146484375000,189.2490997314453000,484.2070922851562500,8.0186395645141600,38.3067893981933600,51,102,99,79,80,13666,2146955081,2147519204,2147292882,2147518665,2147088841,2146925668,2147712612,2147117193,276,-2,8,9677
1346075903,5807,1031.9300537109375000,186.8186035156250000,483.3052978515625000,8.0465211868286130,38.4510917663574200,52,102,99,79,80,13669,2146956141,2147519826,2147293942,2147517906,2147091593,2146925202,2147714221,2147118820,373,-2,8,36119
1346079503,5805,1027.9899902343750000,187.7380981445312500,484.2824096679687500,8.0163106918334960,38.4076995849609400,53,104,99,79,79,13663,2146959561,2147513316,2147293586,2147516470,2147091574,2146925440,2147716315,2147119341,3276,-2,8,58098
1346083103,5805,1034.1700439453125000,187.1009979248047000,483.4000854492187500,8.0435895919799800,38.4339790344238300,52,101,101,79,80,13664,2146955666,2147517741,2147293248,2147522496,2147092699,2146919286,2147717284,2147119844,166,-1,8,33086
1346086703,5805,1028.6600341796875000,188.2142028808593800,484.4881896972656000,8.0099449157714840,38.3791999816894500,52,109,100,79,80,13656,2146958573,2147517165,2147293613,2147520475,2147091894,2146921444,2147715986,2147118774,515,-2,8,6445
1346090303,5806,1031.0000000000000000,188.0670013427734400,485.6017150878906000,7.9755082130432130,38.4085083007812500,52,102,100,79,79,13666,2146958720,2147513581,2147295030,2147520384,2147086637,2146924781,2147714075,2147117266,253,-1,8,54349
1346093903,5808,1033.8299560546875000,188.0074005126953000,485.4162902832031000,7.9812421798706055,38.4090499877929700,52,105,99,79,78,13666,2146960109,2147518125,2147295661,2147520932,2147089398,2146927926,2147718729,2147117824,395,-1,8,36151
1346097503,5809,1030.7199707031250000,187.8164062500000000,485.8082885742187500,7.9691190719604490,38.4287910461425800,52,103,100,79,79,13668,2146959524,2147515940,2147296100,2147519213,2147089682,2146925257,2147718226,2147117668,41,-2,8,45674
1346101103,5805,1018.8400268554688000,183.6661987304687500,476.6673889160156000,8.2516021728515620,38.5475387573242200,53,104,99,80,78,13661,2146958345,2147516041,2147289746,2147519698,2147088630,2146922550,2147714267,2147115785,3223,-2,8,24926
1346104703,5806,1020.1900024414062000,182.6463012695312500,474.4635925292969000,8.3196325302124020,38.5779914855957000,53,106,99,78,79,13654,2146959442,2147515876,2147291812,2147515254,2147088841,2146922779,2147711899,2147115648,3418,-2,8,24356
1346108303,5808,1020.4299926757812000,180.1098937988281200,472.9151000976562500,8.3674144744873050,38.7239799499511700,53,101,99,78,79,13657,2146962688,2147518436,2147292818,2147517147,2147087698,2146922203,2147711890,2147117129,157,-2,8,13000
1346111903,5806,1014.5900268554688000,179.2205047607422000,473.6218872070312500,8.3456058502197270,38.7971611022949200,52,104,99,79,80,13657,2146958436,2147513846,2147290788,2147517202,2147089371,2146927780,2147715154,2147114852,36,-2,7,7272
1346115503,5804,1016.8200073242188000,182.2286987304687500,474.8359985351562500,8.3081378936767580,38.6128196716308600,53,111,99,78,80,13659,2146959085,2147519835,2147289536,2147512822,2147090331,2146923419,2147713170,2147116214,3522,-2,8,10493
1346119103,5809,1015.7100219726562000,182.0012969970703000,475.1245117187500000,8.2992353439331050,38.6337089538574200,53,103,99,81,80,13657,2146956059,2147515876,2147286454,2147514112,2147093046,2146921499,2147710976,2147116086,52,-2,8,38599
1346122703,5807,1015.9400024414062000,182.0785980224609400,475.0365905761719000,8.3019456863403320,38.6260681152343750,53,103,99,79,80,13648,2146961682,2147518006,2147289627,2147516050,2147093156,2146924973,2147714057,2147119158,3449,-2,8,11560
1346126303,5809,1018.0399780273438000,180.5099029541015600,475.1737060546875000,8.2977142333984380,38.7355995178222660,52,105,99,79,80,13649,2146959122,2147518646,2147290788,2147514532,2147090944,2146928064,2147710930,2147119241,892,-2,8,63628
1346129903,5804,1018.7999877929688000,180.7346038818359400,475.0693054199219000,8.3009376525878900,38.7188186645507800,53,103,98,77,80,13655,2146959798,2147515428,2147289024,2147515702,2147086729,2146926683,2147713124,2147118482,2913,-2,8,53162
1346133503,5803,1020.0300292968750000,180.9483947753906200,474.1879882812500000,8.3281373977661130,38.6886215209960940,53,100,99,79,80,13627,2146959360,2147515584,2147292553,2147518811,2147086683,2146926838,2147713078,2147119168,140,-2,8,60867
1346137103,5805,1017.7299804687500000,180.4915008544922000,474.4082946777344000,8.3213376998901370,38.7238197326660160,52,102,98,80,80,13627,2146963236,2147517814,2147292297,2147516672,2147090322,2146922532,2147715657,2147118244,3260,-2,8,19885
1346140703,5804,1021.7700195312500000,181.8197021484375000,473.4129943847656000,8.3520517349243160,38.6161003112793000,52,103,98,79,80,13624,2146962230,2147515126,2147291446,2147517778,2147089627,2146929051,2147714980,2147117540,453,-2,8,46326
1346144303,5808,1022.6799926757812000,181.7958068847656200,473.4039001464844000,8.3523330688476560,38.6178016662597660,53,103,99,79,78,13624,2146956717,2147514953,2147290285,2147514121,2147088228,2146920905,2147714578,2147116425,499,-2,8,48559
1346147903,5805,1019.9000244140625000,181.9458007812500000,473.5768127441406000,8.3469982147216800,38.6109199523925800,52,102,100,78,80,13622,2146959945,2147513664,2147293750,2147516873,2147091117,2146923190,2147712969,2147120978,503,-2,8,57315
1346151503,5805,1026.1600341796875000,181.6616058349609400,472.8912963867187500,8.3681488037109380,38.6179199218750000,52,106,99,79,80,13603,2146958866,2147516123,2147293330,2147515821,2147091638,2146926500,2147716800,2147118198,412,-2,8,1963
1346155103,5805,1019.2299804687500000,180.1369018554687500,473.6669006347656000,8.3442163467407230,38.7349205017089840,52,100,100,79,80,13601,2146959341,2147514962,2147293449,2147516068,2147088502,2146920045,2147715556,2147114450,2942,-2,8,29754
1346158703,5804,1018.0499877929688000,181.4862976074218800,475.6611938476562500,8.2826662063598630,38.6779289245605500,52,103,100,79,80,13577,2146958409,2147517741,2147294189,2147514386,2147089152,2146928274,2147713398,2147120265,303,-1,8,31506
1346160956,5804,1021.7600097656250000,182.5758972167968800,475.3942871093750000,8.2909040451049800,38.5987205505371100,53,102,99,81,81,13633,2146960018,2147515520,2147291922,2147514112,2147087396,2146926692,2147714185,2147115986,3268,-1,8,25927
